Location: Washington
(38.8950°N, 77.0370°W)
Time: 12:01:28
(UTC-04:00)

ISS - All Passes

Search period start: 21 August 2014 00:00
Search period end: 31 August 2014 00:00
Orbit: 413 x 419 km, 51.6° (Epoch: 21 August)

Date Brightness Start Highest point End Pass type
(mag) Time Alt. Az. Time Alt. Az. Time Alt. Az.
21 Aug - 14:39:25 10° SW 14:42:44 88° SE 14:46:04 10° NE daylight
21 Aug - 16:17:36 10° WNW 16:19:51 17° NNW 16:22:07 10° NNE daylight
21 Aug - 19:33:33 10° NNW 19:35:37 15° NNE 19:37:40 10° ENE daylight
21 Aug - 21:09:29 10° NW 21:12:49 73° NE 21:16:09 10° ESE visible
21 Aug - 22:48:14 10° WSW 22:49:07 11° SW 22:50:00 10° SW visible
22 Aug - 13:51:04 10° SSW 13:54:16 46° SE 13:57:28 10° ENE daylight
22 Aug - 15:28:26 10° W 15:31:08 23° NNW 15:33:52 10° NNE daylight
22 Aug - 18:45:23 10° N 18:46:49 12° NNE 18:48:15 10° NE daylight
22 Aug - 20:21:03 10° NW 20:24:15 42° NNE 20:27:26 10° ESE visible
22 Aug - 21:58:18 10° W 22:00:47 20° SW 22:03:15 10° S visible
23 Aug - 13:03:03 10° S 13:05:50 25° SE 13:08:38 10° ENE daylight
23 Aug - 14:39:25 10° W 14:42:28 33° NNW 14:45:32 10° NE daylight
23 Aug - 16:18:55 10° NNW 16:20:00 11° NNW 16:21:04 10° N daylight
23 Aug - 17:57:23 10° N 17:57:58 10° N 17:58:34 10° NNE daylight
23 Aug - 19:32:42 10° NNW 19:35:36 27° NNE 19:38:30 10° E daylight
23 Aug - 21:09:18 10° WNW 21:12:22 35° SW 21:15:26 10° SSE visible
24 Aug - 12:15:36 10° SSE 12:17:27 14° SE 12:19:18 10° E daylight
24 Aug - 13:50:34 10° WSW 13:53:50 56° NW 13:57:07 10° NE daylight
24 Aug - 15:29:23 10° NW 15:31:09 14° NNW 15:32:56 10° NNE daylight
24 Aug - 18:44:23 10° NNW 18:46:52 19° NNE 18:49:22 10° ENE daylight
24 Aug - 20:20:34 10° WNW 20:23:53 67° SW 20:27:11 10° SE visible
25 Aug - 13:01:57 10° SW 13:05:15 81° SE 13:08:35 10° NE daylight
25 Aug - 14:40:00 10° WNW 14:42:20 18° NNW 14:44:40 10° NNE daylight
25 Aug - 17:56:06 10° NNW 17:58:04 15° NNE 18:00:02 10° NE daylight
25 Aug - 19:31:59 10° NW 19:35:19 67° NE 19:38:37 10° ESE daylight
25 Aug - 21:10:18 10° WSW 21:11:38 12° SW 21:12:57 10° SSW visible
26 Aug - 12:13:34 10° SSW 12:16:43 42° SE 12:19:53 10° ENE daylight
26 Aug - 13:50:46 10° W 13:53:33 24° NNW 13:56:20 10° NNE daylight
26 Aug - 17:07:53 10° N 17:09:12 12° NNE 17:10:30 10° NE daylight
26 Aug - 18:43:30 10° NW 18:46:39 38° NNE 18:49:48 10° ESE daylight
26 Aug - 20:20:37 10° W 20:23:13 21° SW 20:25:49 10° S visible
27 Aug - 11:25:32 10° S 11:28:13 23° SE 11:30:55 10° ENE daylight
27 Aug - 13:01:42 10° W 13:04:49 36° NNW 13:07:55 10° NE daylight
27 Aug - 14:41:06 10° NW 14:42:18 12° NNW 14:43:30 10° N daylight
27 Aug - 16:19:56 10° N 16:20:16 10° N 16:20:36 10° NNE daylight
27 Aug - 17:55:05 10° NNW 17:57:55 25° NNE 18:00:46 10° E daylight
27 Aug - 19:31:36 10° WNW 19:34:43 38° SW 19:37:50 10° SSE daylight
28 Aug - 10:38:11 10° SSE 10:39:46 13° SE 10:41:21 10° E daylight
28 Aug - 12:12:50 10° WSW 12:16:07 61° NW 12:19:25 10° NE daylight
28 Aug - 13:51:31 10° NW 13:53:23 14° NNW 13:55:16 10° NNE daylight
28 Aug - 17:06:42 10° NNW 17:09:06 18° NNE 17:11:31 10° ENE daylight
28 Aug - 18:42:50 10° NW 18:46:09 74° SW 18:49:28 10° SE daylight
29 Aug - 11:24:10 10° SW 11:27:28 73° SE 11:30:47 10° NE daylight
29 Aug - 13:02:05 10° WNW 13:04:30 18° NNW 13:06:55 10° NNE daylight
29 Aug - 16:18:22 10° NNW 16:20:13 14° NNE 16:22:04 10° NE daylight
29 Aug - 17:54:12 10° NW 17:57:30 60° NE 18:00:47 10° ESE daylight
29 Aug - 19:32:12 10° W 19:33:51 13° SW 19:35:30 10° SSW daylight
30 Aug - 10:35:46 10° SSW 10:38:52 38° SE 10:41:58 10° ENE daylight
30 Aug - 12:12:49 10° W 12:15:39 26° NNW 12:18:30 10° NNE daylight
30 Aug - 13:52:55 10° NNW 13:53:18 10° N 13:53:41 10° N daylight
30 Aug - 15:30:05 10° N 15:31:16 11° NNE 15:32:26 10° NNE daylight
30 Aug - 17:05:39 10° NW 17:08:45 35° NNE 17:11:51 10° E daylight
30 Aug - 18:42:38 10° WNW 18:45:21 23° SW 18:48:04 10° S daylight
